{"data":{"norad_id":68882,"epoch":"2026-09-20T04:19:02.197920Z","epoch_age_seconds":43069,"freshness":"FRESH","line1":"1 68882U 26095U   26263.17988655  .00000088  00000+0  40524-4 0  9996","line2":"2 68882  51.9007 190.6033 0000788  76.9308 283.1742 14.79930847 21680","mean_motion":14.79930847,"eccentricity":7.88e-5,"inclination_deg":51.9007,"raan_deg":190.6033,"arg_perigee_deg":76.9308,"mean_anomaly_deg":283.1742,"bstar":4.0524e-5,"rev_number":2168,"period_min":97.301843725945,"perigee_km":628.99022053198,"apogee_km":630.09463080946,"semimajor_km":7007.6794256707,"source":"CELESTRAK","updated_at":"2026-09-20T09:00:24.539019Z"}}